Starlink 35982

operational
NORAD ID: 66828 Int'l Des: 2025-280 Owner: SPXS Country: US Constellation: starlink
LEOCIRCULAR

About Starlink 35982

Description loading...

Live Position

Loading 3D Globe...

Upcoming Passes

Altitude History

Altitude vs Time

uPlot chart will show altitude changes over time

Two-Line Element Set

1 66828U 25280H 26041.25523257 .00168030 00000-0 13680-1 0 9998
2 66828 70.0025 43.7421 0004802 244.0627 116.0038 14.98539983 11961
Epoch: Feb 10, 2026 • Age: 9 hours

Current Status

Altitude 589.2 km
Velocity 7.57 km/s
Sub-Earth Point -57.04°S, 112.23°W
Launch Date Dec 2, 2025
Age 0.1 years
Type internet

Technical Details

Classification Payload
Mass 575.00 kg
Dry Mass 530.00 kg
Total Mass 575.00 kg
Length 0.30 m
Diameter 4.10 m
Span 29.00 m
Shape Box + pan
Manufacturer SPXS
Bus Type Starlink V2MO
Phase Status In Orbit
Owner/State SPXS/US

Large Constellations

Loading constellations...